Wind_Speed
24 24 24 24 25 24 22 23 22 21 20 19 19 20 19 19 18 17 16 16 15 15 15 15 14 13 13 13 13 12 11 11 11 10 10 10 9 9 8 8 8 7 7 7 7 7 6 7 7
26 26 26 27 26 24 23 24 24 23 22 21 21 21 21 21 20 20 19 18 17 17 16 16 16 15 15 14 14 14 13 12 12 12 12 11 11 10 10 10 10 9 9 9 8 8 8 8 8
28 28 29 29 27 24 24 25 25 24 24 24 24 23 23 22 22 21 21 20 20 19 18 18 18 17 16 16 16 15 15 14 14 13 13 13 12 12 12 12 12 11 11 11 11 11 10 10 10
30 30 31 30 28 26 26 27 27 26 26 26 26 25 24 24 24 23 23 22 21 21 20 20 19 19 18 18 17 17 17 16 16 16 15 15 14 14 13 13 13 13 13 13 12 12 11 12 12
31 32 32 31 28 27 28 29 29 29 28 28 28 27 26 26 25 25 24 24 23 23 22 22 22 21 20 20 19 19 19 18 17 17 17 16 16 16 15 15 15 15 15 14 14 14 14 14 14
33 33 33 31 29 29 30 31 31 31 30 30 29 29 28 27 27 27 27 26 26 25 24 24 24 24 23 22 21 21 21 20 19 19 18 18 17 17 17 17 17 17 16 16 16 16 16 16 16
34 34 34 32 31 31 31 32 32 32 31 31 31 31 30 29 29 29 29 29 28 28 27 26 26 25 25 24 24 23 23 22 22 21 20 20 19 19 18 18 18 19 19 18 18 18 18 18 18
34 35 34 33 32 32 32 33 34 34 33 33 32 32 31 31 31 30 30 31 31 30 30 29 28 27 28 27 26 25 25 25 24 24 23 22 21 21 21 21 20 20 21 20 20 20 20 20 19
34 35 34 33 33 33 33 34 35 35 35 35 34 33 32 32 32 32 32 32 33 33 32 31 31 30 30 29 28 27 27 27 26 26 26 25 24 23 23 23 22 23 23 23 22 22 22 21 21
35 35 34 34 34 34 35 36 36 36 36 36 36 36 35 34 34 33 34 33 34 34 34 33 33 32 32 31 30 30 29 29 29 28 28 27 26 26 25 25 24 24 24 25 25 24 24 23 23
35 35 35 35 34 35 36 37 37 37 37 37 37 37 36 36 35 35 35 35 35 35 35 35 35 34 34 33 33 32 31 31 31 30 30 29 29 28 27 26 26 26 27 27 26 26 26 24 24
35 35 35 35 35 36 36 37 37 37 37 37 38 38 38 38 37 36 36 36 36 36 36 37 36 35 35 35 35 34 33 33 33 32 31 31 31 30 29 29 28 28 28 28 28 28 27 27 27
36 36 36 36 36 37 37 38 38 38 38 38 38 39 40 39 39 38 38 38 38 38 38 38 38 37 37 37 37 36 35 34 34 34 34 33 32 32 31 31 30 30 30 30 30 29 29 29 28
37 37 37 37 37 38 38 39 39 38 39 40 39 40 41 41 41 40 40 39 39 40 40 39 39 39 39 39 38 38 37 36 36 35 35 35 34 34 33 33 32 32 32 32 32 31 31 31 31
38 39 38 38 38 39 39 39 39 39 40 40 41 41 41 42 42 42 42 42 41 41 41 41 41 41 41 41 40 39 39 38 37 37 37 36 36 36 35 35 34 34 34 34 33 33 33 33 33
39 40 40 39 40 40 40 39 39 41 41 41 42 42 42 43 43 44 44 44 44 43 43 43 43 43 43 43 42 41 40 40 40 39 38 38 38 38 38 37 36 36 36 36 35 35 35 35 35
39 40 40 40 41 41 42 40 39 42 42 42 42 42 42 42 43 44 44 45 45 45 45 45 45 45 45 44 43 42 43 42 42 41 40 40 40 40 40 39 38 38 38 37 37 37 37 37 37
39 40 40 40 40 41 41 40 40 42 42 42 42 42 41 42 42 43 45 45 46 46 47 47 46 47 47 47 45 45 44 44 44 43 43 43 43 42 42 41 41 40 40 39 38 38 38 38 38
39 40 39 40 41 41 41 41 40 41 42 42 42 42 42 42 42 43 44 45 46 47 47 47 47 48 47 47 47 46 46 46 46 46 46 45 45 45 43 43 42 41 41 41 40 39 39 38 38
38 39 39 40 41 41 42 41 41 41 41 41 41 41 42 42 43 43 44 44 45 47 48 48 49 49 49 49 48 48 48 48 48 48 48 47 47 46 45 45 44 43 42 42 42 41 39 39 39
37 38 38 39 40 41 42 41 40 40 41 41 41 42 42 42 42 43 43 44 45 46 47 48 49 50 50 51 50 50 50 50 49 49 49 49 49 48 48 47 46 45 44 44 43 43 42 41 40
36 36 37 38 39 40 41 42 39 40 40 40 40 41 41 41 41 42 43 44 45 46 47 48 49 50 50 52 52 52 52 51 51 50 50 51 50 50 50 48 48 46 46 45 45 44 43 43 42
35 35 37 38 38 39 39 41 39 39 39 39 39 40 40 41 41 41 42 43 45 46 47 47 48 49 50 51 53 53 53 53 53 52 52 51 52 52 51 50 49 48 47 47 47 47 46 45 43
33 34 36 37 38 39 37 39 40 37 37 38 38 38 39 40 41 41 42 43 44 45 46 47 48 49 50 51 52 53 54 54 55 54 54 53 53 53 52 51 50 49 49 49 48 48 47 47 45
32 32 33 35 36 37 36 38 39 36 36 37 37 38 39 40 41 42 43 44 44 45 47 48 48 49 50 50 51 52 54 55 56 56 56 55 54 53 52 52 51 51 50 50 49 48 48 47 46
29 30 31 33 33 34 34 36 36 35 35 36 37 39 40 41 42 43 44 45 45 46 47 48 48 48 49 50 52 53 53 54 55 55 55 55 53 52 51 52 52 51 51 50 50 50 49 48 48
28 28 29 31 32 33 33 33 33 33 35 36 37 38 40 41 42 43 44 45 46 46 47 47 48 48 49 49 50 52 53 53 53 53 53 54 53 53 53 53 52 52 52 51 51 50 50 50 49
28 28 28 28 31 32 33 32 31 31 32 34 35 36 38 39 40 42 43 44 45 45 46 47 47 48 48 49 50 50 51 52 52 52 52 53 54 54 54 53 52 52 52 52 52 52 52 52 51
27 28 28 29 30 31 32 31 30 31 31 32 34 35 37 38 39 40 42 44 45 46 46 46 47 48 48 48 49 49 50 51 51 52 52 52 52 53 54 54 53 53 53 52 52 51 52 51 51
26 27 28 29 30 31 32 31 29 30 30 31 33 34 35 37 38 39 40 42 44 45 46 46 46 46 47 47 47 47 47 49 50 50 51 52 53 53 53 54 54 54 54 54 53 53 52 51 50
Wind_Direction
242 243 244 244 246 247 247 250 252 251 250 252 254 256 257 257 258 258 256 255 253 252 250 249 249 248 246 247 246 247 250 252 247 245 246 245 247 251 254 255 257 256 257 259 259 257 256 255 254
244 244 245 246 247 248 248 250 252 252 252 253 255 257 256 257 258 257 255 253 251 250 250 249 249 249 248 247 247 246 247 251 248 247 248 247 249 251 255 256 257 258 259 262 261 261 260 260 259
245 246 247 248 249 250 250 250 252 252 253 254 256 257 258 258 258 256 254 253 252 250 249 250 249 248 249 248 248 247 247 250 251 251 250 250 250 251 255 258 258 261 262 263 263 266 263 263 262
247 248 248 249 250 250 250 251 252 252 254 255 256 257 258 258 257 256 255 254 253 252 250 249 249 248 248 248 248 248 248 249 250 251 252 252 251 253 255 258 259 261 262 264 265 266 266 265 264
248 248 249 250 250 250 250 251 253 254 255 255 256 258 257 257 257 257 256 255 254 253 251 250 249 248 247 247 248 250 249 249 250 249 251 252 252 253 254 255 257 260 262 263 264 265 266 267 266
249 249 250 250 250 250 250 252 253 255 255 256 256 257 256 255 256 257 256 255 254 253 251 250 250 249 247 247 247 249 250 250 250 249 249 251 253 254 255 256 257 259 261 262 262 263 265 266 267
250 250 251 250 251 251 252 252 253 255 255 255 256 255 255 255 255 256 255 254 253 253 251 250 250 250 249 249 249 249 250 251 250 249 248 250 252 253 255 257 258 259 260 261 262 262 263 265 266
251 251 252 251 252 252 253 254 254 254 254 255 256 256 255 255 255 255 255 255 253 252 251 250 250 250 250 250 249 249 250 251 251 250 249 250 251 252 254 257 258 260 259 260 261 263 263 264 265
251 252 253 253 253 253 253 254 254 254 255 255 255 255 255 254 254 255 255 254 254 252 250 249 249 250 252 251 249 249 249 250 251 251 250 250 251 252 254 256 258 260 260 260 261 262 263 263 264
252 254 255 255 254 253 253 253 254 254 255 255 255 255 255 254 254 254 255 254 253 251 250 249 248 248 251 251 250 249 249 250 250 250 251 251 252 253 254 255 257 259 261 261 261 262 263 263 263
253 255 255 255 255 254 254 253 254 255 256 256 256 255 254 253 253 253 254 254 252 251 249 249 248 248 250 250 250 250 250 250 250 250 251 252 253 254 254 256 257 259 260 261 262 263 263 263 263
254 255 256 256 257 256 255 255 255 256 257 256 256 255 255 254 253 253 253 252 251 250 250 249 249 250 249 250 251 250 251 250 249 250 250 251 253 254 254 255 257 258 260 261 262 263 263 263 263
255 255 256 257 257 257 256 255 256 257 257 257 256 256 255 255 254 254 253 252 250 250 250 250 250 250 249 250 251 251 250 250 250 251 251 251 252 254 255 256 256 258 259 260 262 262 263 264 264
257 256 256 257 258 257 257 256 257 257 257 257 257 257 256 255 255 254 253 252 251 250 250 250 249 249 249 250 250 250 251 251 251 251 251 252 252 253 255 256 256 257 258 259 260 261 262 262 263
258 258 257 257 258 258 257 257 258 257 258 258 258 258 257 256 255 255 253 252 252 251 250 250 249 250 250 251 251 250 250 250 251 251 252 252 253 254 255 255 256 257 258 258 259 260 262 263 263
258 258 258 258 258 258 258 257 258 258 258 258 259 259 259 257 255 254 253 252 252 251 251 251 250 250 250 250 250 250 251 251 251 252 252 252 253 254 256 256 256 257 258 259 258 260 262 263 263
258 259 258 258 259 259 259 258 258 258 259 259 259 260 259 257 256 254 252 252 251 251 250 250 250 250 251 250 249 250 251 251 251 251 253 253 254 255 255 256 256 257 258 259 259 260 261 263 263
260 260 259 259 259 259 259 259 258 259 259 260 261 260 259 258 256 254 252 251 251 251 250 250 249 250 250 250 250 250 251 251 251 251 252 253 255 256 255 257 256 256 257 258 260 261 262 263 264
260 259 259 259 258 259 260 260 259 259 260 260 260 260 259 258 256 255 254 252 251 250 250 250 249 249 250 251 251 251 251 252 252 252 252 252 253 254 255 256 257 256 257 258 259 261 262 263 264
261 260 260 259 259 260 260 260 260 260 261 261 260 260 259 259 257 256 254 253 252 251 251 251 250 250 250 251 252 252 252 252 252 252 252 252 252 253 254 256 256 256 256 257 258 260 261 263 264
261 262 261 261 260 260 261 260 260 260 261 261 261 260 259 259 259 257 255 254 252 252 252 252 252 251 252 252 252 252 252 253 253 252 253 253 253 253 254 255 256 257 257 257 258 259 261 262 262
263 263 262 262 261 262 262 263 260 260 261 261 261 260 259 260 260 259 257 255 253 252 252 253 254 254 254 253 252 252 252 252 252 253 253 253 254 254 254 254 255 256 256 256 257 259 260 261 262
264 264 263 263 263 263 263 264 261 261 261 261 262 261 260 260 260 259 257 256 254 253 253 253 254 255 255 254 253 252 252 252 252 253 254 254 254 254 254 254 254 254 255 256 257 258 259 260 261
265 265 265 265 265 265 264 265 264 263 263 261 260 261 260 260 260 260 259 257 256 255 255 255 255 255 256 256 255 254 253 252 252 253 253 253 253 254 254 253 253 254 255 256 256 258 259 260 260
266 267 268 268 268 268 268 267 268 266 263 261 260 261 261 261 261 261 259 258 257 257 257 258 258 257 256 256 256 255 254 253 253 252 252 253 253 253 252 253 253 253 254 255 255 257 259 259 259
267 268 270 272 273 272 271 271 271 268 266 264 262 262 261 261 260 261 260 259 258 258 258 258 258 258 258 257 255 254 254 254 254 253 253 252 252 253 253 253 253 254 254 254 255 257 258 259 259
268 269 271 272 273 274 273 274 272 269 268 267 266 265 264 263 262 262 262 260 259 259 259 259 259 258 258 258 257 255 254 254 253 253 252 252 252 252 253 254 254 254 254 255 256 256 258 259 259
269 270 271 272 274 276 276 277 275 272 272 271 270 268 267 266 264 264 264 262 260 259 259 259 259 258 257 257 257 256 255 254 253 252 252 251 252 252 252 253 254 254 254 254 256 257 257 258 259
268 269 270 272 274 277 280 281 279 276 275 274 273 272 270 270 268 267 266 263 260 260 260 260 259 259 258 258 258 257 256 255 254 253 252 251 251 252 252 252 253 253 254 255 256 257 257 259 259
270 271 272 273 275 278 281 283 282 281 279 278 277 276 274 272 271 268 266 264 262 261 260 260 259 259 258 258 258 258 257 255 254 253 252 251 251 251 252 253 253 253 254 255 256 257 258 258 258
Height
5805 5806 5808 5809 5811 5812 5814 5816 5818 5819 5821 5823 5824 5825 5826 5828 5830 5833 5832 5832 5833 5834 5835 5836 5837 5838 5839 5840 5841 5842 5843 5844 5845 5846 5847 5848 5849 5850 5851 5852 5853 5854 5854 5855 5855 5856 5856 5856 5857
5800 5802 5804 5805 5806 5808 5811 5813 5814 5816 5818 5819 5820 5821 5822 5824 5825 5827 5827 5828 5829 5831 5832 5833 5834 5835 5836 5838 5839 5840 5841 5842 5843 5844 5845 5846 5847 5848 5849 5850 5851 5852 5852 5853 5854 5854 5854 5855 5855
5796 5797 5799 5800 5802 5805 5807 5809 5810 5812 5813 5814 5816 5817 5818 5820 5821 5822 5823 5824 5826 5827 5828 5830 5831 5832 5833 5835 5836 5837 5838 5839 5840 5841 5842 5843 5844 5845 5846 5847 5849 5849 5850 5851 5851 5852 5852 5853 5853
5791 5792 5794 5796 5798 5802 5803 5804 5805 5807 5808 5810 5811 5813 5814 5816 5817 5818 5819 5820 5821 5823 5824 5826 5827 5828 5830 5831 5833 5834 5835 5836 5837 5838 5839 5840 5842 5843 5844 5845 5846 5847 5847 5848 5849 5849 5850 5850 5851
5785 5787 5788 5790 5794 5796 5797 5798 5800 5801 5803 5805 5806 5808 5809 5811 5812 5813 5814 5815 5817 5818 5820 5822 5823 5824 5826 5827 5829 5830 5831 5832 5834 5834 5836 5837 5838 5839 5840 5841 5842 5843 5844 5845 5846 5846 5847 5847 5848
5779 5781 5783 5786 5789 5791 5792 5793 5794 5796 5798 5799 5801 5802 5804 5805 5806 5808 5809 5810 5812 5813 5815 5817 5818 5820 5821 5823 5825 5826 5827 5828 5829 5831 5832 5833 5834 5836 5837 5838 5839 5840 5841 5842 5842 5843 5843 5844 5844
5774 5775 5777 5780 5783 5785 5786 5787 5788 5790 5792 5793 5794 5796 5798 5800 5801 5802 5803 5805 5806 5807 5809 5811 5813 5814 5816 5818 5820 5821 5823 5824 5825 5826 5828 5829 5830 5832 5833 5834 5835 5836 5837 5838 5838 5839 5839 5840 5840
5767 5769 5771 5774 5776 5779 5780 5780 5782 5784 5785 5787 5788 5790 5792 5794 5794 5795 5797 5798 5799 5801 5803 5805 5807 5809 5811 5813 5815 5816 5818 5819 5820 5822 5823 5825 5826 5827 5828 5830 5831 5832 5832 5833 5834 5834 5835 5836 5836
5760 5763 5764 5768 5770 5772 5773 5773 5775 5776 5778 5779 5781 5783 5785 5786 5788 5789 5790 5791 5793 5794 5796 5799 5801 5803 5805 5807 5809 5810 5812 5814 5815 5817 5818 5819 5821 5822 5823 5825 5826 5827 5827 5828 5829 5830 5830 5831 5832
5753 5755 5759 5760 5762 5763 5765 5766 5767 5769 5770 5772 5774 5776 5777 5779 5781 5782 5783 5784 5785 5787 5789 5792 5794 5797 5799 5801 5803 5804 5806 5807 5809 5811 5812 5814 5815 5817 5818 5819 5820 5821 5822 5823 5824 5824 5825 5826 5827
5746 5749 5751 5752 5754 5755 5756 5758 5759 5760 5762 5764 5766 5768 5770 5772 5773 5775 5776 5777 5778 5780 5782 5784 5787 5789 5792 5794 5796 5798 5800 5801 5803 5805 5806 5808 5809 5811 5812 5813 5814 5815 5816 5817 5818 5819 5819 5820 5821
5739 5741 5742 5744 5745 5746 5748 5749 5751 5752 5755 5756 5757 5759 5761 5763 5765 5767 5769 5770 5772 5773 5775 5778 5780 5782 5784 5787 5789 5791 5793 5794 5796 5798 5799 5801 5803 5804 5806 5807 5808 5809 5810 5811 5812 5813 5814 5814 5815
5730 5732 5734 5735 5737 5738 5739 5741 5742 5744 5746 5747 5748 5750 5752 5754 5756 5758 5760 5762 5764 5766 5768 5770 5772 5774 5777 5779 5781 5784 5785 5787 5789 5790 5792 5794 5796 5797 5799 5800 5801 5802 5803 5804 5805 5806 5807 5808 5809
5722 5724 5725 5726 5728 5729 5730 5732 5734 5736 5737 5738 5740 5741 5743 5745 5747 5749 5751 5753 5755 5757 5760 5761 5764 5766 5769 5771 5773 5776 5777 5779 5781 5783 5784 5786 5788 5789 5791 5792 5794 5795 5796 5797 5798 5799 5801 5802 5802
5713 5715 5717 5718 5718 5720 5721 5724 5725 5727 5728 5729 5731 5732 5733 5735 5737 5739 5741 5744 5746 5748 5750 5753 5755 5758 5760 5762 5765 5767 5769 5771 5772 5774 5776 5778 5779 5781 5783 5784 5786 5787 5788 5789 5791 5792 5793 5794 5795
5704 5705 5708 5709 5709 5710 5713 5715 5717 5717 5718 5719 5721 5722 5723 5725 5727 5729 5731 5734 5736 5739 5741 5743 5746 5748 5751 5753 5755 5758 5760 5762 5764 5766 5767 5769 5771 5772 5774 5775 5777 5778 5779 5781 5782 5784 5785 5786 5787
5694 5696 5698 5700 5700 5700 5702 5705 5707 5706 5707 5709 5710 5711 5713 5714 5716 5718 5720 5723 5726 5728 5731 5733 5736 5738 5741 5743 5745 5748 5750 5752 5754 5756 5758 5760 5762 5763 5765 5766 5768 5769 5771 5772 5774 5775 5776 5777 5779
5686 5687 5688 5690 5690 5690 5692 5695 5696 5696 5697 5698 5699 5701 5702 5704 5705 5707 5709 5712 5715 5718 5720 5723 5725 5728 5730 5732 5735 5738 5740 5742 5744 5746 5748 5750 5752 5753 5755 5757 5758 5760 5762 5763 5764 5766 5767 5768 5769
5676 5677 5678 5679 5679 5680 5681 5684 5686 5685 5686 5688 5689 5691 5692 5694 5695 5696 5699 5701 5703 5706 5709 5711 5714 5717 5719 5721 5724 5726 5729 5731 5733 5735 5737 5739 5741 5743 5745 5747 5749 5751 5752 5754 5755 5757 5758 5759 5760
5666 5667 5668 5669 5669 5669 5671 5673 5675 5675 5676 5677 5679 5680 5682 5683 5684 5686 5688 5690 5692 5694 5697 5700 5702 5705 5707 5710 5712 5714 5717 5719 5722 5724 5726 5728 5730 5732 5734 5737 5739 5741 5742 5744 5745 5747 5748 5750 5751
5657 5658 5659 5659 5659 5659 5660 5663 5665 5666 5666 5667 5668 5670 5671 5672 5673 5675 5676 5678 5680 5683 5685 5688 5690 5692 5695 5697 5699 5702 5704 5707 5710 5712 5714 5717 5719 5721 5723 5726 5728 5730 5732 5734 5735 5737 5739 5740 5741
5648 5649 5649 5649 5649 5649 5651 5651 5656 5655 5656 5657 5659 5659 5660 5662 5663 5664 5666 5668 5670 5672 5674 5676 5678 5680 5682 5684 5687 5689 5692 5694 5697 5699 5702 5705 5707 5710 5712 5714 5717 5719 5721 5724 5725 5727 5728 5729 5731
5639 5640 5640 5639 5639 5640 5641 5640 5645 5646 5647 5648 5649 5649 5650 5651 5652 5653 5655 5656 5658 5660 5662 5664 5666 5668 5669 5671 5673 5676 5678 5681 5684 5686 5689 5692 5695 5697 5700 5703 5705 5708 5710 5712 5714 5716 5718 5719 5720
5631 5631 5630 5630 5630 5630 5632 5631 5633 5637 5638 5638 5639 5639 5640 5641 5642 5643 5644 5645 5647 5649 5650 5652 5654 5655 5657 5658 5660 5663 5665 5668 5671 5673 5676 5679 5682 5685 5688 5691 5693 5696 5698 5701 5703 5705 5706 5708 5709
5623 5623 5622 5621 5621 5622 5623 5621 5624 5627 5628 5628 5629 5630 5630 5630 5631 5632 5633 5634 5636 5637 5638 5640 5641 5642 5644 5645 5647 5649 5652 5654 5657 5660 5663 5666 5669 5672 5675 5678 5681 5684 5687 5689 5691 5693 5695 5696 5698
5616 5616 5616 5614 5613 5614 5614 5613 5617 5618 5618 5618 5619 5619 5620 5620 5620 5621 5622 5622 5624 5625 5626 5627 5628 5629 5630 5632 5633 5635 5637 5639 5643 5646 5649 5652 5656 5659 5662 5665 5669 5672 5674 5676 5679 5681 5683 5685 5686
5608 5608 5608 5607 5605 5605 5605 5606 5608 5608 5608 5608 5608 5608 5609 5609 5609 5609 5610 5610 5611 5612 5614 5614 5615 5616 5617 5618 5619 5621 5623 5626 5629 5632 5635 5639 5643 5646 5649 5652 5656 5659 5662 5664 5666 5669 5671 5673 5674
5602 5601 5601 5599 5597 5597 5597 5598 5600 5599 5599 5599 5598 5598 5597 5597 5597 5597 5598 5598 5599 5599 5600 5601 5602 5603 5604 5604 5606 5607 5610 5612 5615 5618 5621 5625 5630 5633 5636 5639 5643 5646 5649 5652 5654 5657 5659 5660 5661
5595 5595 5593 5592 5591 5590 5589 5593 5591 5590 5590 5589 5588 5587 5586 5586 5586 5586 5586 5586 5586 5587 5587 5588 5589 5590 5590 5592 5593 5595 5597 5599 5601 5605 5608 5612 5616 5620 5623 5627 5630 5633 5636 5639 5642 5643 5645 5647 5649
5587 5587 5587 5586 5585 5583 5581 5586 5583 5582 5580 5579 5578 5577 5576 5575 5575 5574 5574 5574 5574 5574 5575 5575 5576 5577 5578 5579 5580 5582 5583 5585 5588 5592 5595 5599 5603 5606 5610 5614 5617 5621 5623 5626 5629 5631 5633 5634 5636